• en Suisse
  • Liste des pays
  • À 7 jours
  • Température de l'eau
  • Carte satellitaire
  • Carte météo
  • Widgets météo
  • user-avatar
    Se connecter

    Météo par heure à Gisborne

    Ce jour, 15 Octobre, Lundi

    Heure Température Précipitation Vent Pression Humidité
    00:00 +5°C° 0 mm 5 m/s 770 mmHg 85%
    01:00 +3°C° 0 mm 5 m/s 770 mmHg 86%
    02:00 +3°C° 0 mm 5 m/s 770 mmHg 86%
    03:00 +2°C° 0 mm 5 m/s 770 mmHg 87%
    04:00 +3°C° 0 mm 4 m/s 770 mmHg 84%
    05:00 +3°C° 0 mm 4 m/s 771 mmHg 81%
    06:00 +3°C° 0 mm 5 m/s 770 mmHg 74%
    07:00 +7°C° 0 mm 5 m/s 770 mmHg 63%
    08:00 +9°C° 0 mm 5 m/s 770 mmHg 53%
    09:00 +13°C° 0 mm 4 m/s 770 mmHg 42%
    10:00 +14°C° 0 mm 4 m/s 770 mmHg 38%
    11:00 +17°C° 0 mm 4 m/s 770 mmHg 34%
    12:00 +17°C° 0 mm 5 m/s 770 mmHg 31%
    13:00 +18°C° 0 mm 4 m/s 769 mmHg 32%
    14:00 +19°C° 0 mm 4 m/s 769 mmHg 32%
    15:00 +19°C° 0 mm 4 m/s 769 mmHg 33%
    16:00 +17°C° 0 mm 4 m/s 769 mmHg 43%
    17:00 +14°C° 0 mm 3 m/s 769 mmHg 53%
    18:00 +11°C° 0 mm 3 m/s 769 mmHg 64%
    19:00 +10°C° 0 mm 2 m/s 769 mmHg 72%
    20:00 +8°C° 0 mm 2 m/s 770 mmHg 79%
    21:00 +7°C° 0 mm 2 m/s 770 mmHg 86%
    22:00 +7°C° 0 mm 2 m/s 770 mmHg 87%
    23:00 +6°C° 0 mm 2 m/s 770 mmHg 89%

    Demain, 16 Octobre, Mardi

    Heure Température Précipitation Vent Pression Humidité
    00:00 +6°C° 0 mm 2 m/s 770 mmHg 90%
    01:00 +6°C° 0 mm 2 m/s 770 mmHg 91%
    02:00 +6°C° 0 mm 2 m/s 770 mmHg 92%
    03:00 +6°C° 0 mm 2 m/s 770 mmHg 93%
    04:00 +6°C° 0 mm 2 m/s 770 mmHg 94%
    05:00 +6°C° 0 mm 2 m/s 770 mmHg 94%
    06:00 +7°C° 0 mm 2 m/s 769 mmHg 94%
    07:00 +11°C° 0 mm 1 m/s 769 mmHg 80%
    08:00 +14°C° 0 mm 1 m/s 769 mmHg 66%
    09:00 +19°C° 0 mm 1 m/s 769 mmHg 52%
    10:00 +20°C° 0 mm 1 m/s 768 mmHg 47%
    11:00 +20°C° 0 mm 2 m/s 768 mmHg 42%
    12:00 +21°C° 0 mm 2 m/s 767 mmHg 38%
    13:00 +21°C° 0 mm 2 m/s 767 mmHg 41%
    14:00 +21°C° 0 mm 2 m/s 766 mmHg 43%
    15:00 +20°C° 0 mm 2 m/s 765 mmHg 46%
    16:00 +19°C° 0 mm 2 m/s 765 mmHg 55%
    17:00 +17°C° 0 mm 2 m/s 765 mmHg 64%
    18:00 +15°C° 0 mm 2 m/s 765 mmHg 72%
    19:00 +14°C° 0 mm 2 m/s 765 mmHg 80%
    20:00 +11°C° 0 mm 3 m/s 765 mmHg 87%
    21:00 +10°C° 0 mm 3 m/s 765 mmHg 95%
    22:00 +10°C° 0 mm 3 m/s 765 mmHg 93%
    23:00 +9°C° 0 mm 2 m/s 764 mmHg 92%

    Après-demain, 17 Octobre, Mercredi

    Heure Température Précipitation Vent Pression Humidité
    00:00 +9°C° 0 mm 2 m/s 764 mmHg 91%
    01:00 +9°C° 0 mm 2 m/s 764 mmHg 90%
    02:00 +9°C° 0 mm 3 m/s 763 mmHg 89%
    03:00 +8°C° 0 mm 3 m/s 762 mmHg 89%
    04:00 +8°C° 0 mm 3 m/s 762 mmHg 85%
    05:00 +8°C° 0 mm 3 m/s 762 mmHg 81%
    06:00 +7°C° 0 mm 3 m/s 761 mmHg 78%
    07:00 +10°C° 0 mm 3 m/s 761 mmHg 66%
    08:00 +13°C° 0 mm 3 m/s 761 mmHg 55%
    09:00 +17°C° 0 mm 3 m/s 761 mmHg 44%
    10:00 +19°C° 0 mm 4 m/s 761 mmHg 39%
    11:00 +20°C° 0 mm 4 m/s 761 mmHg 34%
    12:00 +22°C° 0 mm 4 m/s 761 mmHg 28%
    13:00 +22°C° 0 mm 4 m/s 761 mmHg 31%
    14:00 +21°C° 0 mm 4 m/s 760 mmHg 34%
    15:00 +21°C° 0 mm 5 m/s 760 mmHg 37%
    16:00 +19°C° 0 mm 4 m/s 760 mmHg 47%
    17:00 +17°C° 0 mm 3 m/s 760 mmHg 57%
    18:00 +15°C° 0 mm 2 m/s 761 mmHg 67%
    19:00 +14°C° 0 mm 2 m/s 761 mmHg 74%
    20:00 +12°C° 0 mm 2 m/s 762 mmHg 80%
    21:00 +11°C° 0 mm 1 m/s 762 mmHg 87%
    22:00 +10°C° 0 mm 1 m/s 762 mmHg 86%
    23:00 +9°C° 0 mm 2 m/s 763 mmHg 86%

    18 Octobre, Jeudi

    Heure Température Précipitation Vent Pression Humidité
    00:00 +9°C° 0 mm 2 m/s 763 mmHg 85%
    01:00 +9°C° 0 mm 2 m/s 762 mmHg 84%
    02:00 +9°C° 0 mm 2 m/s 762 mmHg 84%
    03:00 +9°C° 0 mm 2 m/s 762 mmHg 83%
    04:00 +9°C° 0 mm 2 m/s 762 mmHg 83%
    05:00 +10°C° 0 mm 2 m/s 762 mmHg 82%
    06:00 +10°C° 0 mm 2 m/s 762 mmHg 82%
    07:00 +15°C° 0 mm 2 m/s 763 mmHg 69%
    08:00 +19°C° 0 mm 1 m/s 763 mmHg 56%
    09:00 +23°C° 0 mm 1 m/s 763 mmHg 43%
    10:00 +24°C° 0 mm 2 m/s 763 mmHg 43%
    11:00 +24°C° 0 mm 2 m/s 764 mmHg 43%
    12:00 +24°C° 0 mm 3 m/s 764 mmHg 43%
    13:00 +22°C° 0 mm 4 m/s 764 mmHg 48%
    14:00 +21°C° 0 mm 4 m/s 764 mmHg 52%
    15:00 +19°C° 0 mm 4 m/s 764 mmHg 57%
    16:00 +18°C° 0 mm 4 m/s 765 mmHg 65%
    17:00 +17°C° 0 mm 4 m/s 765 mmHg 73%
    18:00 +14°C° 0 mm 4 m/s 766 mmHg 81%
    19:00 +14°C° 0 mm 4 m/s 767 mmHg 85%
    20:00 +13°C° 0 mm 3 m/s 767 mmHg 89%
    21:00 +12°C° 0 mm 3 m/s 768 mmHg 94%
    22:00 +12°C° 0 mm 2 m/s 768 mmHg 95%
    23:00 +12°C° 0 mm 2 m/s 768 mmHg 96%

    19 Octobre, Vendredi

    Heure Température Précipitation Vent Pression Humidité
    00:00 +11°C° 0 mm 1 m/s 768 mmHg 97%
    01:00 +11°C° 0 mm 1 m/s 768 mmHg 97%
    02:00 +11°C° 0 mm 1 m/s 768 mmHg 97%
    03:00 +10°C° 0 mm 1 m/s 768 mmHg 97%
    04:00 +10°C° 0 mm 1 m/s 768 mmHg 97%
    05:00 +10°C° 0 mm 1 m/s 768 mmHg 97%
    06:00 +10°C° 0 mm 1 m/s 768 mmHg 97%
    07:00 +14°C° 0 mm 1 m/s 768 mmHg 84%
    08:00 +17°C° 0 mm 2 m/s 769 mmHg 70%
    09:00 +20°C° 0 mm 2 m/s 769 mmHg 56%
    10:00 +22°C° 0 mm 3 m/s 768 mmHg 52%
    11:00 +24°C° 0 mm 3 m/s 768 mmHg 47%
    12:00 +26°C° 0 mm 4 m/s 767 mmHg 42%
    13:00 +26°C° 0 mm 4 m/s 767 mmHg 43%
    14:00 +25°C° 0 mm 4 m/s 766 mmHg 45%
    15:00 +25°C° 0 mm 5 m/s 766 mmHg 46%
    16:00 +23°C° 0 mm 4 m/s 766 mmHg 52%
    17:00 +21°C° 0 mm 4 m/s 766 mmHg 58%
    18:00 +19°C° 0 mm 4 m/s 766 mmHg 64%
    19:00 +18°C° 0 mm 4 m/s 766 mmHg 68%
    20:00 +17°C° 0 mm 4 m/s 766 mmHg 72%
    21:00 +16°C° 0 mm 3 m/s 767 mmHg 76%
    22:00 +14°C° 0 mm 3 m/s 766 mmHg 78%
    23:00 +14°C° 0 mm 3 m/s 766 mmHg 79%

    20 Octobre, Samedi

    Heure Température Précipitation Vent Pression Humidité
    00:00 +14°C° 0 mm 3 m/s 766 mmHg 80%
    01:00 +15°C° 0 mm 2 m/s 766 mmHg 82%
    02:00 +14°C° 0 mm 2 m/s 765 mmHg 83%
    03:00 +14°C° 0 mm 2 m/s 765 mmHg 84%
    04:00 +13°C° 0 mm 2 m/s 765 mmHg 84%
    05:00 +13°C° 0 mm 2 m/s 765 mmHg 85%
    06:00 +13°C° 0 mm 2 m/s 765 mmHg 85%
    07:00 +15°C° 0 mm 2 m/s 765 mmHg 73%
    08:00 +18°C° 0 mm 2 m/s 765 mmHg 61%
    09:00 +20°C° 0 mm 2 m/s 765 mmHg 49%
    10:00 +22°C° 0 mm 3 m/s 765 mmHg 46%
    11:00 +24°C° 0 mm 3 m/s 764 mmHg 44%
    12:00 +25°C° 0 mm 3 m/s 764 mmHg 41%
    13:00 +25°C° 0 mm 3 m/s 764 mmHg 43%
    14:00 +25°C° 0 mm 3 m/s 763 mmHg 44%
    15:00 +25°C° 0 mm 3 m/s 763 mmHg 46%
    16:00 +22°C° 0 mm 3 m/s 763 mmHg 53%
    17:00 +21°C° 0 mm 3 m/s 763 mmHg 61%
    18:00 +19°C° 0 mm 3 m/s 763 mmHg 68%
    19:00 +18°C° 0 mm 4 m/s 763 mmHg 72%
    20:00 +17°C° 0 mm 4 m/s 763 mmHg 75%
    21:00 +17°C° 0 mm 4 m/s 764 mmHg 79%
    22:00 +17°C° 0 mm 4 m/s 764 mmHg 78%
    23:00 +15°C° 0 mm 4 m/s 763 mmHg 76%
    Voir plus